Regional Weather Roundup
Issued by NWS

Home | Current Version | Previous Version | Text Only | Print | Product List | Glossary On
Versions: 1 2 3 4 5 6 7 8 9 10 11 12 13 14 15 16 17 18 19 20 21 22 23 24 25 26 27 28 29 30 31 32 33 34 35 36 37 38 39 40 41 42 43 44 45 46 47 48 49 50
000
ASPQ40 PGUM 190912
RWRPQ
WEATHER ROUNDUP FOR THE MARIANAS AND MICRONESIA
NATIONAL WEATHER SERVICE TIYAN GU
700 PM CHST FRI DEC 19 2014

GUZ001>004-191000-
MARIANA ISLANDS-

CITY           SKY/WX    TMP DP  RH WIND       PRES   REMARKS
GUAM AIRPORT   MOCLDY    79  75  89 NE13      29.93R
ANDERSEN AFB   PTCLDY    79  75  89 NE23G31   29.94R
ROTA AIRPORT   PTCLDY    79  73  83 E21G26    29.95R
TINIAN AP      PTCLDY    82  75  78 E21G26    29.93R
SAIPAN AP      MOCLDY    81  73  78 E23       29.95R

$$

PMZ161-191000-
REPUBLIC OF PALAU-

CITY           SKY/WX    TMP DP  RH WIND       PRES   REMARKS
KOROR AP       CLOUDY    81  75  83 E8        29.85R
KOROR WSO      MOCLDY    81  77  89 SE7       29.84R

$$

PMZ171>174-191000-
FEDERATED STATES OF MICRONESIA-

CITY           SKY/WX    TMP DP  RH WIND       PRES   REMARKS
YAP AIRPORT    LGT RAIN  81  77  89 NE12      29.84R
CHUUK AP       MOCLDY    82  75  78 NE9       29.81R
POHNPEI AP     NOT AVBL
POHNPEI WSO    PTCLDY    79  77  94 CALM      29.86R
KOSRAE AP      NOT AVBL

$$

PMZ181-191000-
REPUBLIC OF THE MARSHALL ISLANDS-

CITY           SKY/WX    TMP DP  RH WIND       PRES   REMARKS
KWAJALEIN AP   PTCLDY    82  75  78 NE16      29.86R
MAJURO AP      NOT AVBL
MAJURO WSO     MOCLDY    82  79  89 E15       29.84R HX  93

$$



USA.gov is the U.S. government's official web portal to all federal, state and local government web resources and services.